Location: Unspecified
(0.0000°N, 0.0000°E)
Time: 03:43:06
(UTC+00:00)

Tiangong 1 - Pass Details

Date: 17 November 2017
Orbit: 276 x 303 km, 42.8° (Epoch: 12 December)

Event Time Altitude Azimuth Distance (km) Brightness Sun altitude
Rises 18:48:07 0° 242° (WSW) 2,002 6.5 -14.9°
Reaches altitude 10° 18:50:18 10° 258° (WSW) 1,166 4.9 -15.4°
Maximum altitude 18:52:29 23° 315° (NW) 681 2.6 -15.9°
Enters shadow 18:53:29 18° 350° (N) 803 2.6 -16.1°
